Home   Weather   Dundalk   Past weeks
Flag for Ireland

Past Weather in Dundalk, Ireland — Yesterday and Last 2 Weeks

Now
51 °F

Cool.


Feels Like: 50 °F
Forecast: 55 / 46 °F
Wind: 5 mph from East

Location: Glenanne

Current Time: Apr 24, 2019 at 1:49:14 am

Latest Report: Apr 24, 2019 at 1:00 am


Visibility: 9 mi

Pressure: 29.32 "Hg

Humidity: 82%

Dew Point: 46 °F

Location of DundalkLocation

Past Weather in Dundalk — Graph

°F

Dundalk Temperature Yesterday

Maximum temperature yesterday: 65 °F (at 2:00 pm)
Minimum temperature yesterday: 49 °F (at 5:00 am)
Average temperature yesterday: 55 °F

High & Low Weather Summary for the Past Weeks

 TemperatureHumidityPressure
High68 °F (Apr 20, 4:00 pm)100% (Apr 17, 4:00 am)30.45 "Hg (Apr 17, 4:00 am)
Low33 °F (Apr 11, 5:00 am)51% (Apr 22, 3:00 pm)29.32 "Hg (Apr 23, 6:00 pm)
Average48 °F79%30.08 "Hg
* Reported Apr 9 12:00 am — Apr 24 12:00 am, Dundalk. Weather by CustomWeather, © 2019

Note: Actual official high and low records may vary slightly from our data, if they occured in-between our weather recording intervals... More about our weather records

Advertising

Dundalk Weather History for the Previous 24 Hours

Scroll right to see more
 ConditionsComfort  
Time TempWeatherWind HumidityBarometerVisibility
12:00 am
Wed, Apr 24
50 °FCool.7 mph88%29.35 "Hg7 mi
11:00 pm
Tue, Apr 23
50 °FCool.3 mph86%29.35 "Hg7 mi
10:00 pm50 °FCool.5 mph84%29.35 "Hg8 mi
9:00 pm53 °FCool.2 mph78%29.35 "Hg9 mi
8:00 pm55 °FCool.7 mph74%29.35 "Hg9 mi
7:00 pm58 °FCool.9 mph69%29.35 "Hg9 mi
6:00 pm61 °FCool.13 mph63%29.32 "Hg9 mi
5:00 pm64 °FMild.9 mph58%29.35 "Hg11 mi
4:00 pm61 °FCool.12 mph62%29.35 "Hg9 mi
3:00 pm63 °FMild.9 mph65%29.38 "Hg9 mi
2:00 pm65 °FMild.8 mph65%29.38 "Hg7 mi
12:00 pm59 °FCool.5 mph82%29.44 "Hg9 mi
11:00 am55 °FRain showers. Cloudy.6 mph81%29.44 "Hg6 mi
10:00 am55 °FCool.5 mph78%29.47 "Hg8 mi
9:00 am53 °FCool.1 mph80%29.47 "Hg8 mi
8:00 am49 °FCool.3 mph84%29.47 "Hg7 mi
7:00 am51 °FCool.2 mph74%29.47 "Hg15 mi
6:00 am50 °FCool.5 mph78%29.47 "Hg11 mi
5:00 am49 °FCool.5 mph78%29.47 "Hg8 mi
4:00 am51 °FCool.8 mph77%29.47 "Hg11 mi
3:00 am51 °FCool.2 mph81%29.47 "Hg9 mi
2:00 am53 °FCool.6 mph76%29.47 "Hg9 mi
1:00 am55 °FLight rain. Overcast.8 mph72%29.47 "Hg12 mi
Weather by CustomWeather, © 2019

See weather overview